Regional Weather Roundup
Issued by NWS

Home | Current Version | Previous Version | Graphics & Text | Print | Product List | Glossary On
Versions: 1 2 3 4 5 6 7 8 9 10 11 12 13 14 15 16 17 18 19 20 21 22 23 24 25 26 27 28 29 30 31 32 33 34 35 36 37 38 39 40 41 42 43 44 45 46 47 48 49 50
000
ASUS43 KBIS 121202
RWRND

NORTH DAKOTA REGIONAL WEATHER ROUNDUP
NATIONAL WEATHER SERVICE BISMARCK ND
600 AM CST FRI FEB 12 2016

NOTE: "FAIR" INDICATES FEW OR NO CLOUDS BELOW 12,000 FEET WITH NO
SIGNIFICANT WEATHER AND/OR OBSTRUCTIONS TO VISIBILITY.


NDZ001>003-009>011-017-121300-
NORTHWEST NORTH DAKOTA

CITY           SKY/WX    TMP DP  RH WIND       PRES   REMARKS
WILLISTON      CLOUDY     8   2  76 NE9       30.50R WCI  -5
6HR MIN TEMP:   8; 6HR MAX TEMP:  20; 6HR PCP: TRACE;

MINOT          CLOUDY     0  -9  65 NW9       30.51R WCI -15
MINOT AFB      CLOUDY    -1  -8  72 NW6       30.51R WCI -13
$$

NDZ018>021-031>035-040>046-121300-
SOUTHWEST NORTH DAKOTA

CITY           SKY/WX    TMP DP  RH WIND       PRES   REMARKS
BISMARCK       CLOUDY    13   6  74 N14       30.48R WCI  -2
6HR MIN TEMP:  13; 6HR MAX TEMP:  21; 6HR PCP: TRACE;

DICKINSON      CLOUDY    16  11  80 NE8       30.37R WCI   5
GARRISON         N/A      1  -5  75 N12       30.47R WCI -16
6HR MIN TEMP:   1; 6HR MAX TEMP:  18;

HETTINGER ARPT CLOUDY    20  16  84 N10       30.38R WCI   9
$$

NDZ004>008-012>016-024-026-027-054-121300-
NORTHEAST NORTH DAKOTA

CITY           SKY/WX    TMP DP  RH WIND       PRES   REMARKS
GRAND FORKS    CLEAR      0  -9  65 N15       30.51R WCI -19
GRND FRKS AFB  CLOUDY    -2  -9  69 N12       30.51R WCI -19
DEVILS LAKE    CLOUDY   -10 -14  82 NW13      30.49R WCI -30
$$

NDZ022-023-025-028>030-036>039-047>053-121300-
SOUTHEAST NORTH DAKOTA

CITY           SKY/WX    TMP DP  RH WIND       PRES   REMARKS
FARGO          CLEAR      2  -7  66 N21       30.47R WCI -20
6HR MIN TEMP:   2; 6HR MAX TEMP:  13;

JAMESTOWN      CLOUDY     1  -5  75 N12       30.46R WCI -16
$$




USA.gov is the U.S. government's official web portal to all federal, state and local government web resources and services.